Weather History for KNKT - November, 2013

Change the Weather History Date:

Saturday, November 30, 2013

  Actual Average Record
Temperature  
Mean Temperature 47 °F -  
Max Temperature 57 °F 59 °F 77 °F (2001)
Min Temperature 37 °F 38 °F 30 °F (2012)
Degree Days  
Heating Degree Days 18    
Moisture  
Dew Point 37 °F    
Average Humidity 72    
Maximum Humidity 86    
Minimum Humidity 55    
Precipitation  
Precipitation 0.00 in - - ()
Sea Level Pressure  
Sea Level Pressure 30.48 in    
Wind  
Wind Speed 11 mph (NNE)    
Max Wind Speed 15 mph    
Max Gust Speed -    
Visibility 10 miles    
Events      
Averages and records for this station are not official NWS values.
T = Trace of Precipitation, MM = Missing Value Source: NWS Daily Summary

Daily Weather History Graph

Daily Weather History Graph

Search for Another Location

Airport or City:

Trip Planner

Search our weather history database for the weather conditions in past years. The results will help you decide how hot, cold, wet, or windy it might be!

Date:

Astronomy

Nov. 30, 2013 Rise Set
Actual Time 6:56 AM EST 4:56 PM EST
Civil Twilight 6:28 AM EST 5:23 PM EST
Nautical Twilight 5:57 AM EST 5:55 PM EST
Astronomical Twilight 5:26 AM EST 6:25 PM EST
Moon 4:10 AM EST (11/30) 3:14 PM EST (11/30)
Length of Visible Light 10h 55m
Length of Day
10h 00m
Waning Crescent, 7% of the Moon is Illuminated
Nov 30
Waning Crescent
Dec 2
New
Dec 9
First Quarter
Dec 17
Full
Dec 25
Last Quarter

Hourly Weather History & Observations

Time (EST) Temp. Windchill Dew Point Humidity Pressure Visibility Wind Dir Wind Speed Gust Speed Precip Events Conditions
12:54 AM 37.9 °F 30.9 °F 28.9 °F 70% 30.57 in 10.0 mi NNE 10.4 mph - N/A   Clear
1:54 AM 37.9 °F 29.6 °F 28.9 °F 70% 30.57 in 10.0 mi NNE 13.8 mph - N/A   Clear
2:54 AM 37.0 °F 28.9 °F 28.9 °F 73% 30.56 in - NNE 12.7 mph - N/A   Clear
3:54 AM 37.0 °F 28.1 °F 30.0 °F 76% 30.55 in - NNE 15.0 mph - N/A   Clear
4:54 AM 37.0 °F 28.9 °F 30.9 °F 79% 30.55 in - NNE 12.7 mph - N/A   Clear
5:54 AM 37.0 °F 29.3 °F 30.9 °F 79% 30.55 in - NNE 11.5 mph - N/A   Clear
6:54 AM 37.0 °F 29.3 °F 30.9 °F 79% 30.55 in 10.0 mi NNE 11.5 mph - N/A   Clear
7:54 AM 39.0 °F 31.8 °F 33.1 °F 79% 30.55 in 10.0 mi North 11.5 mph - N/A   Clear
8:54 AM 43.0 °F 36.8 °F 35.1 °F 74% 30.55 in 10.0 mi NNE 11.5 mph - N/A   Clear
9:54 AM 46.9 °F - 36.0 °F 66% 30.55 in 10.0 mi NNE 15.0 mph - N/A   Clear
10:54 AM 52.0 °F - 39.0 °F 61% 30.53 in 10.0 mi NNE 13.8 mph - N/A   Clear
11:54 AM 55.0 °F - 39.9 °F 57% 30.51 in 10.0 mi NNE 13.8 mph - N/A   Clear
12:54 PM 57.0 °F - 41.0 °F 55% 30.48 in 10.0 mi NNE 12.7 mph - N/A   Clear
1:54 PM 57.0 °F - 42.1 °F 57% 30.45 in 10.0 mi NE 11.5 mph - N/A   Scattered Clouds
2:54 PM 57.0 °F - 43.0 °F 59% 30.43 in 10.0 mi NNE 10.4 mph - N/A   Overcast
3:54 PM 55.9 °F - 43.0 °F 62% 30.43 in 10.0 mi NNE 11.5 mph - N/A   Mostly Cloudy
4:54 PM 53.1 °F - 42.1 °F 66% 30.41 in 10.0 mi NNE 10.4 mph - N/A   Mostly Cloudy
5:54 PM 51.1 °F - 42.1 °F 71% 30.41 in 10.0 mi North 9.2 mph - N/A   Scattered Clouds
6:54 PM 48.9 °F - 42.1 °F 77% 30.40 in 10.0 mi NNE 10.4 mph - N/A   Clear
7:54 PM 46.9 °F - 41.0 °F 80% 30.39 in 10.0 mi NE 8.1 mph - N/A   Partly Cloudy
8:54 PM 46.9 °F - 41.0 °F 80% 30.38 in 10.0 mi North 6.9 mph - N/A   Partly Cloudy
9:54 PM 46.0 °F 43.9 °F 41.0 °F 83% 30.37 in 10.0 mi NNE 4.6 mph - N/A   Overcast
10:54 PM 45.0 °F 41.8 °F 41.0 °F 86% 30.35 in 10.0 mi North 5.8 mph - N/A   Mostly Cloudy
11:54 PM 45.0 °F 40.6 °F 39.9 °F 82% 30.33 in 10.0 mi North 8.1 mph - N/A   Partly Cloudy